This demonstration page uses our WeatherBlox Daily Observations layout. Learn more.

Left ArrowRight Arrow

41.86663, -103.66717

Hourly Observations for January 7, 2017

Temp ( °F °C ) Dew Point ( °F °C ) Humidity (%) Winds ( mph kmh ) Pressure ( in mb ) Visibility ( mi km ) Precip ( " mm )
12:53 am 00:53 Clear -5 -20.6 -13 -25 68 68 N 7 11 30.53 1034 10 16 0.00 0.00
1:53 am 01:53 Clear -12 -24.4 -18 -27.8 73 73 N 5 7 30.56 1035 10 16 0.00 0.00
2:53 am 02:53 Clear -6 -21.1 -12 -24.4 75 75 Calm 30.55 1035 10 16 0.00 0.00
3:53 am 03:53 Clear -11 -23.9 -17 -27.2 74 74 NNW 7 11 30.58 1036 10 16 0.00 0.00
4:53 am 04:53 Clear -11 -23.9 -16 -26.7 78 78 NNW 5 7 30.58 1035 10 16 0.00 0.00
5:53 am 05:53 Clear -14 -25.6 -19 -28.3 78 78 W 7 11 30.63 1037 10 16 0.00 0.00
6:53 am 06:53 Clear -11 -23.9 -17 -27.2 74 74 N 5 7 30.65 1038 10 16 0.00 0.00
7:53 am 07:53 Sunny -12 -24.4 -18 -27.8 73 73 WNW 3 6 30.68 1039 10 16 0.00 0.00
8:53 am 08:53 Sunny -6 -21.1 -13 -25 71 71 Calm 30.68 1039 10 16 0.00 0.00
9:53 am 09:53 Sunny 1 -17.2 -7 -21.7 68 68 Calm 30.70 1040 10 16 0.00 0.00
10:53 am 10:53 Sunny 3 -16.1 -7 -21.7 62 62 E 5 7 30.70 1040 10 16 0.00 0.00
11:53 am 11:53 Sunny 6 -14.4 -4 -20 63 63 SE 8 13 30.66 1038 10 16 0.00 0.00
12:53 pm 12:53 Sunny 9 -12.8 -2 -18.9 61 61 ESE 12 19 30.60 1036 10 16 0.00 0.00
1:53 pm 13:53 Sunny 9 -12.8 -1 -18.3 64 64 ESE 10 17 30.61 1037 10 16 0.00 0.00
2:53 pm 14:53 Sunny 9 -12.8 0 -17.8 66 66 ESE 10 17 30.58 1036 10 16 0.00 0.00
3:53 pm 15:53 Sunny 7 -13.9 -1 -18.3 70 70 ESE 9 15 30.59 1036 10 16 0.00 0.00
4:53 pm 16:53 Clear 5 -15 -2 -18.9 72 72 ESE 6 9 30.59 1036 10 16 0.00 0.00
5:53 pm 17:53 Clear 2 -16.7 -4 -20 76 76 ESE 10 17 30.60 1036 10 16 0.00 0.00
6:53 pm 18:53 Clear 3 -16.1 -3 -19.4 76 76 ESE 12 19 30.58 1035 10 16 0.00 0.00
7:53 pm 19:53 Clear 4 -15.6 -2 -18.9 76 76 ESE 14 22 30.55 1035 10 16 0.00 0.00
8:53 pm 20:53 Clear 6 -14.4 0 -17.8 76 76 ESE 15 24 30.48 1032 10 16 0.00 0.00
9:53 pm 21:53 Clear 7 -13.9 1 -17.2 76 76 ESE 16 26 30.41 1030 10 16 0.00 0.00
10:53 pm 22:53 Mostly Cloudy 9 -12.8 2 -16.7 73 73 ESE 7 11 30.41 1030 10 16 0.00 0.00
11:53 pm 23:53 Cloudy 10 -12.2 4 -15.6 76 76 S 9 15 30.38 1029 10 16 0.00 0.00

Powered by AerisWeather